STARLINK-4392 (53489 NORAD) Tracking and Keplerian Element Data

This shows tracking and keplerian element data for the satellite.

Feedback or suggestion? Click here.




ElementValue
Catalog53489
NameSTARLINK-4392
Epoch Orbit1549
Epoch Day325.08232144
Epoch Year2022
RAAN84.1507
Inclination97.6568
Eccentricity0.0003532
Argument of Perigee12.9602
Mean Anonmoly347.1712
Mean Motion15.01258451
Decay Rate8.82E-06
L11 53489U 22099AA 22325.08232144 .00000882 00000+0 73258-4 0 9995
L22 53489 97.6568 84.1507 0003532 12.9602 347.1712 15.01258451 15496



Live tracking and technical data element details for STARLINK-4392 (NORAD 53489). STARLINK-4392 can be tracked NOW for your location showing map with azimuth and elevation plus other details from your city location.







IsCatalogInMostPopularTable: catalog: 53489, numindb: 7
Update: records affected: 1



GetName: 53489 STARLINK-4392

Hit Count: updated at: Tue, 29 Nov 2022 00:29:05 GMT